Simultaneous Nadir Overpasses (SNOs) Predictions

Prediction of SNOs between NOAA-20 and METOP-C Satellite Orbit:

Table of predicted SNOs for the next 14.0 days since TLE Epoch: 1/9/2022
Index Date (NOAA-20) Time (NOAA-20) Lat,Lon (NOAA-20) SZA (NOAA-20 ) Date (METOP-C) Time (METOP-C) Lat,Lon (METOP-C) SZA (METOP-C ) Distance(km) Time Diff (sec)
1 01/22/2022 10:33:13 -73.43,-168.05 86.66 01/22/2022 10:34:19 -73.38,-165.04 86.89 95.83 66
2 01/22/2022 11:23:54 73.19, -0.21 93.07 01/22/2022 11:25:03 73.15, 1.80 92.91 64.73 69
3 01/22/2022 12:14:37 -73.14, 167.23 87.00 01/22/2022 12:15:46 -73.11, 169.03 87.15 58.25 69
4 01/22/2022 13:05:18 72.90, -24.95 92.73 01/22/2022 13:06:30 72.88, -24.13 92.65 26.97 72
5 01/22/2022 13:56:01 -72.85, 142.48 87.34 01/22/2022 13:57:14 -72.78, 143.00 87.45 18.69 73
6 01/22/2022 14:46:44 72.71, -49.92 92.51 01/22/2022 14:47:55 72.70, -49.83 92.48 3.02 71
7 01/22/2022 15:37:27 -72.66, 117.51 87.56 01/22/2022 15:38:38 -72.66, 117.41 87.57 3.19 71
8 01/22/2022 16:28:13 72.67, -75.20 92.44 01/22/2022 16:29:17 72.68, -75.21 92.44 1.62 64
9 01/22/2022 17:18:57 -72.67, 92.11 87.57 01/22/2022 17:19:59 -72.69, 92.13 87.56 2.84 62
10 01/22/2022 18:09:43 72.68,-100.60 92.44 01/22/2022 18:10:39 72.66,-100.59 92.41 1.78 56
11 01/22/2022 19:00:27 -72.68, 66.72 87.58 01/22/2022 19:01:21 -72.67, 66.75 87.60 1.23 54
12 01/22/2022 19:51:12 72.64,-125.89 92.38 01/22/2022 19:52:01 72.64,-125.97 92.38 2.87 49
13 01/22/2022 20:41:56 -72.64, 41.43 87.64 01/22/2022 20:42:43 -72.65, 41.37 87.63 2.62 47
14 01/22/2022 21:32:42 72.65,-151.28 92.37 01/22/2022 21:33:22 72.67,-151.25 92.39 2.99 40
15 01/22/2022 22:23:26 -72.64, 16.04 87.64 01/22/2022 22:24:05 -72.63, 15.99 87.66 2.22 39
16 01/22/2022 23:14:12 72.66,-176.68 92.37 01/22/2022 23:14:44 72.65,-176.63 92.35 1.53 32
17 01/23/2022 00:04:56 -72.65, -9.36 87.65 01/23/2022 00:05:26 -72.66, -9.29 87.65 2.41 30
18 01/23/2022 00:55:41 72.61, 158.03 92.31 01/23/2022 00:56:06 72.63, 157.99 92.32 2.37 25
19 01/23/2022 01:46:25 -72.61, -34.65 87.71 01/23/2022 01:46:48 -72.64, -34.67 87.69 3.12 23
20 01/23/2022 02:37:11 72.62, 132.64 92.30 01/23/2022 02:37:28 72.61, 132.60 92.28 2.10 17



Historial Predications of SNOs between NOAA-20 and METOP-C
